Location: Wildlife_Club
(35.6000°N, 81.4330°W)
Time: 07:36:59
(UTC-04:00)

Vanguard 2 Rocket - Pass Details

Date: 25 June 2019
Orbit: 553 x 3327 km, 32.9° (Epoch: 16 August)

Event Time Altitude Azimuth Distance (km) Brightness Sun altitude
Rises 03:26:19 0° 281° (W) 5,274 10.6 -24.7°
Reaches altitude 10° 03:29:23 10° 276° (W) 4,594 10.2 -24.4°
Maximum altitude 03:42:43 52° 205° (SSW) 3,359 9.3 -23.0°
Drops below altitude 10° 04:01:36 10° 137° (SE) 6,280 11.0 -20.8°
Sets 04:06:43 0° 133° (SE) 7,267 11.5 -20.1°
